Location: Kershaw
(34.5481°N, 80.5823°W)
Time: 00:35:06
(UTC+00:00)

Altair - Pass Details

Date: 05 October 2022
Orbit: 1501 x 1682 km, 47.2° (Epoch: 05 December)

Event Time Altitude Azimuth Distance (km) Brightness Sun altitude
Exits shadow 07:41:17 35° 121° (ESE) 2,351 8.5 -44.2°
Drops below altitude 10° 07:49:10 10° 68° (ENE) 3,856 10.2 -42.8°
Sets 07:52:40 0° 60° (ENE) 4,869 11.0 -42.2°
